G7JIF Weather Reports


Display with metric or nautical units.
time (UTC)temp
F
wind
direction
speed
MPH
gust
MPH
rain 1hr
in
rain 24hr
in
rain mn
in
humidity
%
barometer
mb
20190720134707 73 270 6.0 6.0 0.00 0.00 0.00 53 1006.8
20190720134208 75 270 6.0 6.0 0.00 0.00 0.00 52 1005.8
20190720133707 75 270 6.0 0.0 0.00 0.00 0.00 52 1005.8
20190720133208 74 270 4.0 4.0 0.00 0.00 0.00 52 1005.8
20190720132707 74 270 4.0 4.0 0.00 0.00 0.00 53 1005.8
20190720132209 74 270 4.0 4.0 0.00 0.00 0.00 53 1005.8
20190720131708 74 270 4.0 4.0 0.00 0.00 0.00 55 1005.8
20190720131208 73 270 4.0 4.0 0.00 0.00 0.00 55 1005.8
20190720130707 73 270 4.0 4.0 0.00 0.00 0.00 55 1005.8
20190720130208 73 292 2.0 2.0 0.00 0.00 0.00 57 1005.8
20190720125707 73 292 2.0 3.0 0.00 0.00 0.00 57 1005.8
20190720125207 73 202 2.0 3.0 0.00 0.00 0.00 57 1005.8
20190720124707 73 225 3.0 3.0 0.00 0.00 0.00 55 1005.8
20190720124210 73 315 1.0 1.0 0.00 0.00 0.00 55 1005.8
20190720123707 73 315 1.0 5.0 0.00 0.00 0.00 55 1005.8
20190720123208 73 315 1.0 8.0 0.00 0.00 0.00 57 1005.8
20190720122707 73 292 5.0 8.0 0.00 0.00 0.00 57 1005.8
20190720122208 73 292 5.0 8.0 0.00 0.00 0.00 57 1005.8
20190720121708 73 180 3.0 4.0 0.00 0.00 0.00 57 1005.8
20190720121207 73 338 2.0 4.0 0.00 0.00 0.00 58 1005.8
20190720120707 72 338 2.0 4.0 0.00 0.00 0.00 60 1005.8
20190720120209 72 180 4.0 6.0 0.00 0.00 0.00 59 1005.8
20190720115707 72 315 3.0 6.0 0.00 0.00 0.00 59 1004.8
20190720115205 72 338 3.0 6.0 0.00 0.00 0.00 61 1004.8
20190720114708 70 292 1.0 3.0 0.00 0.00 0.00 62 1004.8
20190720114208 70 292 1.0 3.0 0.00 0.00 0.00 62 1005.8
20190720113707 70 270 2.0 3.0 0.00 0.00 0.00 62 1005.8
20190720113207 70 270 3.0 3.0 0.00 0.00 0.00 62 1005.8
20190720112713 70 270 3.0 3.0 0.00 0.00 0.00 63 1004.8
20190720112208 70 225 2.0 3.0 0.00 0.00 0.00 64 1004.8
20190720111708 70 315 6.0 6.0 0.00 0.00 0.00 63 1004.8
20190720111208 69 315 6.0 6.0 0.00 0.00 0.00 64 1004.8
20190720110707 69 315 6.0 6.0 0.00 0.00 0.00 64 1004.8
20190720110208 69 315 6.0 6.0 0.00 0.00 0.00 65 1004.8
20190720105707 69 315 6.0 6.0 0.00 0.00 0.00 66 1004.8
20190720105208 69 315 6.0 4.0 0.00 0.00 0.00 66 1004.8
20190720104707 69 315 2.0 4.0 0.00 0.00 0.00 71 1004.8
20190720104208 68 68 3.0 4.0 0.00 0.00 0.00 67 1004.8
20190720103707 68 202 3.0 4.0 0.00 0.00 0.00 67 1004.8
20190720103208 68 0 2.0 4.0 0.00 0.00 0.00 68 1004.8
20190720102707 69 0 2.0 4.0 0.00 0.00 0.00 73 1004.8
20190720102208 69 158 4.0 2.0 0.00 0.00 0.00 73 1004.8
20190720101708 69 202 1.0 2.0 0.00 0.00 0.00 74 1004.8
20190720101207 68 202 2.0 5.0 0.00 0.00 0.00 75 1004.8
20190720100707 68 202 2.0 5.0 0.00 0.00 0.00 79 1004.8
20190720100208 68 202 2.0 5.0 0.00 0.00 0.00 79 1004.8
20190720095706 66 202 5.0 6.0 0.00 0.00 0.00 83 1003.8
20190720095209 66 202 5.0 6.0 0.00 0.00 0.00 83 1003.8
20190720094709 66 202 5.0 6.0 0.00 0.00 0.00 83 1003.8
20190720094207 66 180 2.0 2.0 0.00 0.00 0.00 83 1003.8
20190720093708 66 158 2.0 2.0 0.00 0.00 0.00 83 1003.8
20190720093207 66 158 2.0 2.0 0.00 0.00 0.00 84 1003.8
20190720092708 65 158 2.0 2.0 0.00 0.00 0.00 83 1003.8
20190720092208 65 158 2.0 4.0 0.00 0.00 0.00 86 1003.8
20190720091708 65 112 1.0 4.0 0.00 0.00 0.00 86 1003.8
20190720091207 64 112 1.0 4.0 0.00 0.00 0.00 90 1003.8
20190720090708 64 315 1.0 4.0 0.00 0.00 0.00 91 1003.8
20190720090208 63 158 4.0 4.0 0.00 0.00 0.00 91 1003.8
20190720085707 63 180 2.0 4.0 0.00 0.00 0.00 91 1003.8
20190720085208 63 180 3.0 4.0 0.00 0.00 0.00 91 1003.8
20190720084707 63 158 1.0 3.0 0.00 0.00 0.00 91 1003.8
20190720084208 63 180 3.0 3.0 0.00 0.00 0.00 90 1003.8
20190720083707 63 112 0.0 3.0 0.00 0.00 0.00 90 1003.8
20190720083207 64 112 0.0 3.0 0.00 0.00 0.00 91 1003.8
20190720082707 64 202 3.0 3.0 0.00 0.00 0.00 91 1002.8
20190720082208 65 202 3.0 3.0 0.00 0.00 0.00 91 1002.8
20190720081709 65 202 3.0 3.0 0.00 0.00 0.00 91 1002.8
20190720081208 65 202 3.0 3.0 0.00 0.00 0.00 91 1002.8
20190720080707 65 158 3.0 3.0 0.00 0.00 0.00 94 1002.8
20190720080208 65 158 3.0 3.0 0.00 0.00 0.00 94 1002.8
20190720075707 65 158 3.0 3.0 0.00 0.00 0.00 95 1002.8
20190720075208 64 158 3.0 3.0 0.00 0.00 0.00 97 1002.8
20190720074708 64 158 3.0 3.0 0.00 0.00 0.00 97 1002.8
20190720074210 64 292 1.0 3.0 0.00 0.00 0.00 97 1002.8
20190720073707 63 292 1.0 3.0 0.00 0.00 0.00 98 1002.8
20190720073207 63 292 1.0 0.0 0.00 0.00 0.00 98 1002.8
20190720072707 63 112 0.0 3.0 0.00 0.00 0.00 98 1002.8
20190720072210 63 112 0.0 3.0 0.00 0.00 0.00 98 1002.8
20190720071708 63 112 0.0 3.0 0.00 0.00 0.00 98 1002.8
20190720071209 63 270 3.0 3.0 0.00 0.00 0.00 98 1002.8
20190720070707 63 270 3.0 3.0 0.00 0.00 0.00 98 1002.8
20190720070208 63 270 3.0 2.0 0.00 0.00 0.00 98 1002.8
20190720065707 63 180 2.0 2.0 0.00 0.00 0.00 98 1002.8
20190720065207 63 180 2.0 2.0 0.00 0.00 0.00 98 1002.8
20190720064708 63 180 2.0 2.0 0.00 0.00 0.00 98 1002.8
20190720064208 63 180 2.0 2.0 0.00 0.00 0.00 98 1002.8
20190720063708 63 202 2.0 0.0 0.00 0.00 0.00 98 1002.8
20190720063209 63 158 1.0 0.0 0.00 0.00 0.00 98 1002.8
20190720062709 63 158 1.0 1.0 0.00 0.00 0.00 98 1002.8
20190720062208 62 158 1.0 1.0 0.00 0.00 0.00 98 1002.8
20190720061708 62 158 1.0 1.0 0.00 0.00 0.00 98 1002.8
20190720061208 62 158 1.0 1.0 0.00 0.00 0.00 98 1001.8
20190720060709 62 202 1.0 1.0 0.00 0.00 0.00 98 1001.8
20190720060208 62 135 1.0 1.0 0.00 0.00 0.00 98 1001.8
20190720055709 62 180 0.0 1.0 0.00 0.00 0.00 98 1001.8
20190720055208 62 202 0.0 1.0 0.00 0.00 0.00 98 1001.8
20190720054708 62 180 1.0 1.0 0.00 0.00 0.00 98 1001.8
20190720054209 62 225 0.0 0.0 0.00 0.00 0.00 98 1001.8
20190720053708 62 225 0.0 4.0 0.00 0.00 0.00 98 1001.8
20190720053208 62 135 4.0 4.0 0.00 0.00 0.00 98 1001.8
20190720052709 62 135 4.0 4.0 0.00 0.00 0.00 98 1001.8
20190720052208 62 135 2.0 1.0 0.00 0.00 0.00 98 1001.8
20190720051708 62 180 1.0 2.0 0.00 0.00 0.00 98 1001.8
20190720051208 61 180 1.0 2.0 0.00 0.00 0.00 98 1001.8
20190720050708 61 180 1.0 2.0 0.00 0.00 0.00 98 1001.8
20190720050208 61 158 2.0 3.0 0.00 0.00 0.00 98 1001.8
20190720045708 61 158 2.0 3.0 0.00 0.00 0.00 98 1001.8
20190720045207 61 158 2.0 3.0 0.00 0.00 0.00 98 1001.8
20190720044708 61 135 3.0 2.0 0.00 0.00 0.00 98 1001.8
20190720044208 61 158 2.0 2.0 0.00 0.00 0.00 98 1001.8
20190720043707 61 158 2.0 2.0 0.00 0.00 0.00 98 1001.8
20190720043207 61 158 2.0 2.0 0.00 0.00 0.00 98 1001.8
20190720042707 61 202 0.0 3.0 0.00 0.00 0.00 98 1001.8
20190720042208 61 202 0.0 3.0 0.00 0.00 0.00 98 1001.8
20190720041708 61 202 3.0 3.0 0.00 0.00 0.00 98 1001.8
20190720041208 61 180 0.0 3.0 0.00 0.00 0.00 98 1001.8
20190720040707 61 180 0.0 3.0 0.00 0.00 0.00 98 1001.8
20190720040210 61 158 3.0 3.0 0.00 0.00 0.00 98 1001.8
20190720035708 61 180 3.0 3.0 0.00 0.00 0.00 98 1001.8
20190720035208 61 180 3.0 0.0 0.00 0.00 0.00 98 1001.8
20190720034709 61 135 4.0 4.0 0.00 0.00 0.00 98 1001.8
20190720034208 61 135 4.0 4.0 0.00 0.00 0.00 98 1001.8
20190720033707 61 135 4.0 4.0 0.00 0.00 0.00 98 1001.8
20190720033207 61 135 4.0 4.0 0.00 0.00 0.00 98 1001.8
20190720032707 61 135 4.0 4.0 0.00 0.00 0.00 98 1001.8
20190720032208 61 180 3.0 4.0 0.00 0.00 0.00 98 1001.8
20190720031708 61 135 4.0 4.0 0.00 0.00 0.00 98 1001.8
20190720031207 61 135 4.0 4.0 0.00 0.00 0.00 98 1001.8
20190720030207 61 135 4.0 3.0 0.00 0.00 0.00 98 1001.8
20190720025707 61 158 3.0 5.0 0.00 0.00 0.00 98 1001.8
20190720025208 61 158 3.0 5.0 0.00 0.00 0.00 98 1001.8
20190720024708 61 158 3.0 5.0 0.00 0.00 0.00 98 1001.8
20190720024208 61 135 5.0 5.0 0.00 0.00 0.00 98 1001.8
20190720023707 61 135 5.0 5.0 0.00 0.00 0.00 98 1001.8
20190720023207 61 135 3.0 3.0 0.00 0.00 0.00 98 1001.8
20190720022707 61 158 2.0 2.0 0.00 0.00 0.00 98 1002.8
20190720022208 61 158 2.0 2.0 0.00 0.00 0.00 98 1002.8
20190720021708 61 158 2.0 3.0 0.00 0.00 0.00 98 1002.8
20190720021208 61 158 2.0 3.0 0.00 0.00 0.00 98 1002.8
20190720020707 61 158 2.0 3.0 0.00 0.00 0.00 98 1002.8
20190720020207 61 225 3.0 2.0 0.00 0.00 0.00 98 1002.8
20190720015708 61 180 2.0 2.0 0.00 0.00 0.00 98 1002.8
20190720015207 62 180 2.0 2.0 0.00 0.00 0.00 98 1002.8
20190720014708 62 180 2.0 3.0 0.00 0.00 0.00 98 1002.8
20190720014208 62 180 2.0 5.0 0.00 0.00 0.00 98 1002.8
20190720013707 62 225 3.0 5.0 0.00 0.00 0.00 98 1002.8
20190720013207 62 225 3.0 5.0 0.00 0.00 0.00 98 1002.8
20190720012707 62 225 5.0 5.0 0.00 0.00 0.00 98 1002.8
20190720012208 62 180 5.0 4.0 0.00 0.00 0.00 98 1002.8
20190720011708 62 180 4.0 5.0 0.00 0.00 0.00 98 1002.8
20190720011208 62 180 4.0 5.0 0.00 0.00 0.00 98 1002.8
20190720010707 62 180 4.0 5.0 0.00 0.00 0.00 98 1002.8
20190720010208 62 180 4.0 6.0 0.00 0.00 0.00 98 1002.8
20190720005707 62 135 2.0 6.0 0.00 0.00 0.00 98 1002.8
20190720005207 62 135 3.0 6.0 0.00 0.00 0.00 98 1002.8
20190720004707 62 112 6.0 6.0 0.00 0.00 0.00 98 1002.8
20190720004208 62 135 6.0 5.0 0.00 0.00 0.00 98 1002.8
20190720003707 62 158 4.0 5.0 0.00 0.00 0.00 98 1002.8
20190720003207 62 158 4.0 4.0 0.00 0.00 0.00 98 1002.8
20190720002707 62 158 4.0 4.0 0.00 0.00 0.00 98 1002.8
20190720002207 62 135 3.0 3.0 0.00 0.00 0.00 98 1002.8
20190720001708 62 135 3.0 3.0 0.00 0.00 0.00 98 1002.8
20190720001207 62 180 0.0 0.0 0.00 0.00 0.00 98 1002.8
20190720000708 62 180 0.0 3.0 0.00 0.00 0.00 98 1002.8
20190720000208 62 135 3.0 3.0 0.00 0.00 0.00 98 1002.8
20190719235710 62 135 3.0 4.0 0.00 0.00 0.00 98 1003.8
20190719235207 62 158 3.0 4.0 0.00 0.00 0.00 98 1003.8
20190719234707 62 135 4.0 4.0 0.00 0.00 0.00 98 1003.8
20190719234208 62 180 1.0 5.0 0.00 0.00 0.00 98 1003.8
20190719233707 62 202 4.0 5.0 0.00 0.00 0.00 98 1003.8
20190719233207 62 202 4.0 5.0 0.00 0.00 0.00 98 1003.8
20190719232707 62 90 5.0 5.0 0.00 0.00 0.00 98 1003.8
20190719232210 62 135 4.0 4.0 0.00 0.00 0.00 98 1003.8
20190719231708 62 135 4.0 4.0 0.00 0.00 0.00 98 1003.8
20190719231208 62 158 3.0 3.0 0.00 0.00 0.00 98 1003.8
20190719230707 62 158 3.0 3.0 0.00 0.00 0.00 98 1003.8
20190719230208 62 202 2.0 3.0 0.00 0.00 0.00 98 1003.8
20190719225707 62 225 3.0 3.0 0.00 0.00 0.00 98 1003.8
20190719225207 62 158 3.0 4.0 0.00 0.00 0.00 98 1003.8
20190719224708 62 180 2.0 4.0 0.00 0.00 0.00 98 1003.8
20190719224210 62 158 4.0 4.0 0.00 0.00 0.00 98 1003.8
20190719223712 62 158 3.0 3.0 0.00 0.00 0.00 98 1003.8
20190719223207 62 202 2.0 0.0 0.00 0.00 0.00 98 1003.8
20190719222707 63 202 2.0 0.0 0.00 0.00 0.00 98 1003.8
20190719222208 63 202 2.0 0.0 0.00 0.00 0.00 98 1003.8
20190719221709 63 202 2.0 0.0 0.00 0.00 0.00 98 1003.8
20190719221207 63 202 2.0 2.0 0.00 0.00 0.00 98 1003.8
20190719220707 63 202 2.0 2.0 0.00 0.00 0.00 98 1003.8
20190719220208 63 202 2.0 2.0 0.00 0.00 0.00 98 1003.8
20190719215707 63 202 2.0 1.0 0.00 0.00 0.00 98 1003.8
20190719215207 63 135 1.0 1.0 0.00 0.00 0.00 98 1003.8
20190719214708 63 135 1.0 1.0 0.00 0.00 0.00 98 1003.8
20190719214208 63 202 1.0 1.0 0.00 0.00 0.00 98 1003.8
20190719213708 63 202 1.0 4.0 0.00 0.00 0.00 98 1003.8
20190719213206 63 202 1.0 4.0 0.00 0.00 0.00 98 1003.8
20190719212707 63 202 1.0 4.0 0.00 0.00 0.00 98 1003.8
20190719212207 63 135 4.0 4.0 0.00 0.00 0.00 98 1003.8
20190719211708 63 158 1.0 4.0 0.00 0.00 0.00 98 1003.8
20190719211207 63 158 0.0 0.0 0.00 0.00 0.00 98 1003.8
20190719210707 63 158 0.0 0.0 0.00 0.00 0.00 98 1003.8
20190719210208 63 158 0.0 3.0 0.00 0.00 0.00 97 1003.8
20190719205707 63 158 0.0 6.0 0.00 0.00 0.00 97 1004.8
20190719205207 63 202 3.0 6.0 0.00 0.00 0.00 97 1004.8
20190719204707 63 158 6.0 6.0 0.00 0.00 0.00 97 1004.8
20190719204208 63 180 2.0 3.0 0.00 0.00 0.00 97 1004.8
20190719203707 63 158 2.0 4.0 0.00 0.00 0.00 97 1004.8
20190719203207 63 180 2.0 4.0 0.00 0.00 0.00 97 1004.8
20190719202707 63 202 4.0 4.0 0.00 0.00 0.00 97 1004.8
20190719202209 63 202 3.0 3.0 0.00 0.00 0.00 97 1004.8
20190719201712 63 202 3.0 3.0 0.00 0.00 0.00 97 1004.8
20190719201208 63 202 3.0 3.0 0.00 0.00 0.00 97 1004.8
20190719200707 63 180 2.0 2.0 0.00 0.00 0.00 97 1004.8
20190719200215 63 180 2.0 6.0 0.00 0.00 0.00 97 1004.8
20190719195707 63 180 2.0 6.0 0.00 0.00 0.00 97 1004.8
20190719195207 63 180 2.0 6.0 0.00 0.00 0.00 97 1004.8
20190719194708 63 68 4.0 4.0 0.00 0.00 0.00 97 1004.8
20190719194208 64 68 4.0 4.0 0.00 0.00 0.00 97 1004.8
20190719193707 64 135 3.0 3.0 0.00 0.00 0.00 97 1004.8
20190719193207 64 135 2.0 3.0 0.00 0.00 0.00 97 1004.8
20190719192707 64 135 3.0 4.0 0.00 0.00 0.00 97 1004.8
20190719192208 64 202 3.0 4.0 0.00 0.00 0.00 97 1004.8
20190719191708 64 135 2.0 4.0 0.00 0.00 0.00 97 1004.8
20190719191208 64 158 0.0 6.0 0.00 0.00 0.00 97 1004.8
20190719190705 64 158 2.0 6.0 0.00 0.00 0.00 97 1004.8
20190719190208 64 112 3.0 6.0 0.00 0.00 0.00 97 1004.8
20190719185708 64 180 6.0 5.0 0.00 0.00 0.00 97 1004.8
20190719185207 64 202 5.0 5.0 0.00 0.00 0.00 97 1004.8
20190719184708 64 202 5.0 5.0 0.00 0.00 0.00 97 1004.8
20190719184208 64 180 4.0 6.0 0.00 0.00 0.00 97 1005.8
20190719183707 64 180 3.0 6.0 0.00 0.00 0.00 97 1005.8
20190719183208 64 202 5.0 6.0 0.00 0.00 0.00 97 1005.8
20190719182707 64 202 6.0 6.0 0.00 0.00 0.00 97 1005.8
20190719182208 64 202 6.0 6.0 0.00 0.00 0.00 97 1005.8
20190719181708 64 202 3.0 4.0 0.00 0.00 0.00 97 1005.8
20190719181207 64 248 3.0 4.0 0.00 0.00 0.00 97 1004.8
20190719180707 64 248 3.0 4.0 0.00 0.00 0.00 97 1004.8
20190719180208 64 180 4.0 3.0 0.00 0.00 0.00 97 1004.8
20190719175707 64 180 3.0 3.0 0.00 0.00 0.00 97 1005.8
20190719175207 65 180 3.0 3.0 0.00 0.00 0.00 97 1005.8
20190719174711 65 180 3.0 9.0 0.00 0.00 0.00 97 1005.8
20190719174208 65 202 9.0 9.0 0.00 0.00 0.00 97 1005.8
20190719173707 65 202 9.0 9.0 0.00 0.00 0.00 97 1005.8
20190719173207 65 202 2.0 2.0 0.00 0.00 0.00 97 1005.8
20190719172707 65 202 2.0 6.0 0.00 0.00 0.00 97 1004.8
20190719172208 65 202 2.0 6.0 0.00 0.00 0.00 97 1004.8
20190719171708 65 158 2.0 6.0 0.00 0.00 0.00 97 1004.8
20190719171207 65 180 6.0 4.0 0.00 0.00 0.00 97 1005.8
20190719170707 65 22 3.0 4.0 0.00 0.00 0.00 97 1005.8
20190719170208 65 202 3.0 4.0 0.00 0.00 0.00 97 1005.8
20190719165707 65 180 3.0 3.0 0.00 0.00 0.00 97 1005.8
20190719165207 65 225 3.0 3.0 0.00 0.00 0.00 97 1005.8
20190719164714 65 158 3.0 5.0 0.00 0.00 0.00 97 1005.8
20190719164208 65 158 3.0 5.0 0.00 0.00 0.00 98 1004.8
20190719163707 65 202 5.0 5.0 0.00 0.00 0.00 98 1004.8
20190719163207 65 202 5.0 5.0 0.00 0.00 0.00 98 1004.8
20190719162707 65 202 5.0 5.0 0.00 0.00 0.00 98 1005.8
20190719162208 65 270 3.0 3.0 0.00 0.00 0.00 98 1005.8
20190719161708 64 270 3.0 5.0 0.00 0.00 0.00 97 1005.8
20190719161207 64 270 3.0 5.0 0.00 0.00 0.00 97 1006.8
20190719160707 64 202 3.0 5.0 0.00 0.00 0.00 97 1006.8
20190719160208 64 158 5.0 6.0 0.00 0.00 0.00 97 1006.8
20190719155707 64 180 4.0 6.0 0.00 0.00 0.00 97 1005.8
20190719155207 64 225 3.0 9.0 0.00 0.00 0.00 98 1005.8
20190719154708 64 202 6.0 9.0 0.00 0.00 0.00 98 1005.8
20190719154208 64 158 6.0 9.0 0.00 0.00 0.00 98 1006.8
20190719153707 64 158 3.0 9.0 0.00 0.00 0.00 98 1006.8
20190719153207 64 180 1.0 5.0 0.00 0.00 0.00 98 1006.8
20190719152707 64 158 3.0 6.0 0.00 0.00 0.00 98 1005.8
20190719152208 64 225 3.0 6.0 0.00 0.00 0.00 98 1005.8
20190719151708 64 158 3.0 6.0 0.00 0.00 0.00 98 1005.8
20190719151208 64 202 5.0 5.0 0.00 0.00 0.00 98 1005.8
20190719150707 64 202 5.0 8.0 0.00 0.00 0.00 98 1005.8
20190719150209 64 158 4.0 8.0 0.00 0.00 0.00 98 1005.8
20190719145707 64 225 4.0 8.0 0.00 0.00 0.00 98 1005.8
20190719145208 64 158 7.0 6.0 0.00 0.00 0.00 98 1005.8
20190719144708 64 225 6.0 6.0 0.00 0.00 0.00 98 1005.8
20190719144209 64 158 6.0 4.0 0.00 0.00 0.00 97 1006.8
20190719143707 64 202 4.0 4.0 0.00 0.00 0.00 97 1006.8
20190719143207 64 202 4.0 8.0 0.00 0.00 0.00 97 1006.8
20190719142707 65 202 4.0 8.0 0.00 0.00 0.00 97 1006.8
20190719142207 65 202 4.0 8.0 0.00 0.00 0.00 97 1006.8
20190719141708 65 158 3.0 6.0 0.00 0.00 0.00 97 1006.8
20190719141207 65 180 3.0 6.0 0.00 0.00 0.00 97 1006.8
20190719140707 65 45 5.0 6.0 0.00 0.00 0.00 97 1006.8
20190719140208 65 202 4.0 4.0 0.00 0.00 0.00 97 1006.8
20190719135708 65 202 4.0 4.0 0.00 0.00 0.00 97 1005.8